sat.trackr.live / text

‹ back to catalog

STARLINK-11688 [DTC]

NORAD 63756 · 2025-089F

PAYLOAD ACTIVE UNKNOWN

§ Identity

Operator
Country
US
Launch date
2025-04-29
Launch site
AFETR
Launch vehicle
Mass (kg)
RCS (m²)

Purposes: comms

External: N2YO · Heavens-Above · Gunter

§ Orbital elements

Epoch: 2026-05-24T20:26:33.300384Z

Period
91.67 min
Inclination
43.0002°
Eccentricity
0.0000395
Mean motion
15.70908197 rev/d
Perigee alt
356.0 km
Apogee alt
356.6 km
Semi-major
6,734.4 km
B*
1.8697e-3
RAAN
193.1802°
Arg perigee
350.2976°
Mean anomaly
9.7884°
Rev number
6,200

§ Raw data

STARLINK-11688 [DTC]1 63756U 25089F   26144.85177431  .00247454  00000+0  18697-2 0  99922 63756  43.0002 193.1802 0000395 350.2976   9.7884 15.70908197 62002

JSON: /api/v1/satellites/63756 · /tle

For live sub-satellite position, see the globe view (requires WebGL).

§ Visibility from observer

Set your observer location to see the next 7 days of passes ≥ 10°. The values pass through the URL so the page stays shareable.

No JS? Fill the form by hand. The geolocation button needs JavaScript.